Lid_Strength_Index
7 11 14 12 10 10 11 12 13 11 9 11 11 11 9 7 7 7 7 7 7 7 7 9 8 8 9 9 7 6 2 3 1 1 1 1 2 1 1 1 0 1 1 1
10 14 10 9 9 10 11 13 13 10 9 10 11 12 9 8 8 7 7 7 7 8 8 8 8 7 7 7 7 6 6 8 5 2 2 1 1 1 1 1 1 1 1 1
12 11 8 10 11 12 12 13 13 13 11 9 11 13 11 9 8 8 7 7 7 9 8 9 8 7 7 7 6 6 6 7 7 8 8 7 7 4 2 2 2 4 4 2
11 9 10 11 12 11 14 10 11 12 13 17 11 18 13 10 10 9 8 7 7 9 9 9 8 8 7 6 6 6 6 6 6 6 6 6 6 5 4 4 4 4 3 3
13 11 11 12 12 10 12 10 10 11 13 13 13 16 13 10 11 10 9 8 7 9 9 9 8 7 7 7 7 7 6 7 7 7 7 7 7 7 7 6 6 5 4 4
10 7 9 10 9 9 9 11 11 12 13 18 14 15 15 14 11 9 8 8 8 9 9 9 8 7 7 7 7 7 7 7 6 6 6 7 7 7 7 6 6 5 5 5
12 11 9 8 11 9 11 13 18 20 19 20 14 15 13 11 12 11 10 10 9 10 10 9 8 8 8 8 7 7 7 7 7 7 7 7 7 7 7 7 7 6 6 6
16 18 12 9 11 12 12 13 17 22 21 19 15 17 13 9 9 10 11 10 10 11 10 9 7 8 8 8 8 8 8 8 8 8 8 8 8 8 9 9 8 8 8 8
16 16 10 9 9 10 13 15 13 17 18 18 16 14 11 10 10 10 10 10 11 11 10 8 8 8 8 8 8 8 8 8 8 9 9 10 10 10 10 10 10 10 10 9
12 16 11 10 9 9 11 10 16 16 20 21 18 17 14 12 11 11 11 10 9 9 9 8 8 8 8 8 8 9 8 9 9 9 10 10 11 11 11 11 11 11 10 10
11 13 14 10 12 13 13 14 14 14 16 18 19 16 12 12 12 12 11 10 8 7 7 7 8 8 8 8 9 9 9 9 10 10 11 11 11 11 11 11 11 11 11 10
11 12 16 14 10 9 11 12 13 17 18 19 18 16 11 12 12 12 11 9 8 7 7 7 7 8 8 9 9 9 9 10 10 10 11 11 11 11 12 12 11 11 10 10
11 15 17 16 12 11 13 12 13 14 16 19 18 16 12 11 10 9 9 8 7 7 7 7 7 7 8 9 9 10 10 10 10 11 11 11 11 11 12 12 11 11 10 10
9 14 16 19 17 14 14 13 12 13 17 16 16 15 11 11 11 10 9 8 7 7 7 7 8 7 8 8 9 9 10 10 11 11 11 12 11 10 11 11 10 10 10 11
11 16 16 14 13 13 13 13 13 14 13 16 14 14 11 10 10 10 10 9 8 7 7 7 8 8 8 9 9 9 10 10 11 11 12 12 11 10 10 10 10 10 11 11
12 16 15 16 13 14 15 14 12 12 12 12 12 13 9 10 10 10 10 9 9 8 7 7 7 8 8 9 9 10 10 11 11 11 11 11 10 10 10 11 11 11 12 11
14 16 16 19 15 15 17 15 14 13 11 12 14 11 9 10 10 9 9 9 8 7 7 7 8 8 8 8 9 10 10 11 11 11 11 10 10 11 11 11 12 11 12 11
14 15 16 19 17 22 14 12 13 13 12 11 11 10 10 10 8 9 10 9 9 8 8 8 8 8 8 9 9 9 10 10 11 11 11 11 11 11 12 11 12 12 12 12
12 14 16 18 20 16 14 13 13 14 13 12 11 10 10 10 10 10 9 9 8 8 7 7 7 8 9 9 9 10 11 11 11 11 11 10 10 11 11 12 12 13 13 14
12 13 15 17 19 20 16 11 11 11 15 11 11 11 11 11 12 10 9 8 7 7 8 8 9 9 9 9 9 10 11 11 11 11 10 10 10 11 12 12 13 13 14 15
14 13 15 15 16 16 13 12 11 16 15 10 9 10 11 11 10 9 9 9 9 9 10 10 9 9 9 10 10 11 11 11 11 10 10 11 11 11 12 12 13 14 15 16
14 16 16 15 16 18 11 11 13 11 10 9 9 10 10 9 9 9 10 10 10 10 10 10 10 10 10 10 10 11 12 11 11 11 11 11 11 11 12 13 15 14 15 15
15 13 14 14 15 11 11 9 9 9 9 8 9 8 9 8 9 9 10 10 10 10 10 10 10 11 11 10 10 11 11 11 11 11 11 11 11 12 12 13 14 15 16 16
12 12 13 13 12 12 11 10 9 8 9 8 7 7 7 8 8 8 8 9 9 9 10 10 10 11 11 11 11 11 11 11 11 11 11 11 12 12 13 13 14 15 16 16
12 12 13 13 11 11 10 9 9 8 8 8 8 7 6 6 7 7 7 8 8 9 9 9 10 10 10 11 11 11 11 11 11 11 12 12 12 12 13 13 14 15 15 15
11 11 13 13 10 11 10 10 9 8 8 8 9 9 8 7 8 8 8 8 8 8 9 9 9 9 10 11 11 11 11 10 11 12 12 12 12 12 12 13 14 13 13 13